CYGFM05

导读

CYGFM05是美国于2016年12月15日08:00发射的航天器,作为美国航天发射序列中的一员,该卫星的具体任务细节和轨道参数未完全公开,推测大概率是美国军方相关保密载荷。 从发射时间和归属背景来看,它延续了美国航天领域常态化部署空间资产的节奏,依托成熟运载技术入轨后,持续在轨道运行承担既定空间任务,是美国空间基础设施建设布局中的组成部分。

基本信息
目录编号:
41884
目录名称:
CYGFM05
国际标识:
2016-078A
轨道中心:
EARTH
卫星名称:
CYGFM05
卫星全名:
--
卫星状态:
在轨 (已飞行3557 天)
发射日期:
2016-12-15 UTC
国别 :
美国 (US)
星等 :
--
轨道信息
数据来源 国际轨道数据 AOE轨道数据
星历时间 2026-09-11T03:42:29+0800
8小时前
查看轨道信息
2026-09-09T23:00:00+0800
1天前
查看轨道信息
半长轴 6764.683km 6764.842km
偏心率 0.0005502 0.0005548
轨道倾角 34.956° 34.956°
近地点辐角 257.189° 248.569°
升交点赤经 51.958° 59.924°
平近点角 102.822° 220.765°
近地点 382.824km 382.951km
远地点 390.268km 390.459km
周期 92.285分钟 92.288分钟
每日圈数 15.603847 15.603295
详细信息
使用方式:
暂无
2D轨道图
3D轨道图
轨道高度分析图
轨道倾角分析图
轨道综合分析图
查看轨道综合分析图
交会数据列表
事件ID 空间交会对象 最接近时刻(TCA) 交会距离 交会风险概率(CRP) 交会风险指数(CRI) 操作
CDM_260912-211304-188406-176922
CYGFM05 (41884)
2026-09-12T
21:13:35+0000
2.019 km
极远距离
2.407502E-6 低风险 0.43
CDM_260911-100204-188405-828023
CYGFM05 (41884)
2026-09-11T
10:02:18+0000
2.392 km
极远距离
1.490799E-6 低风险 0.38
与全量物体交会距离演化趋势
与全量物体交会风险概率演化趋势